Lorain / Elyria, OH

5:32 PM EDT on April 28, 2017 (GMT -0400)
Lorain County Regional

Weather History for KLPR - October, 2012

Change the Weather History Date:

Thursday, October 4, 2012

  Actual Average (KCLE) Record (KCLE)
Temperature  
Mean Temperature 64 °F -  
Max Temperature 75 °F 67 °F 88 °F (1951)
Min Temperature 54 °F 47 °F 33 °F (1974)
Degree Days  
Heating Degree Days 2    
Growing Degree Days 14 (Base 50)    
Moisture  
Dew Point 51 °F    
Average Humidity 66    
Maximum Humidity 87    
Minimum Humidity 43    
Precipitation  
Precipitation 0.00 in - - ()
Sea Level Pressure  
Sea Level Pressure 30.12 in    
Wind  
Wind Speed 8 mph (SW)    
Max Wind Speed 15 mph    
Max Gust Speed 28 mph    
Visibility 10 miles    
Events Rain    
Averages and records for this station are not official NWS values.
T = Trace of Precipitation, MM = Missing Value Source: NWS Daily Summary

Daily Weather History Graph

Daily Weather History Graph

Search for Another Location

Airport or City:

Trip Planner

Search our weather history database for the weather conditions in past years. The results will help you decide how hot, cold, wet, or windy it might be!

Date:

Astronomy

Oct. 04, 2012 Rise Set
Actual Time 7:29 AM EDT 7:04 PM EDT
Civil Twilight 7:01 AM EDT 7:32 PM EDT
Nautical Twilight 6:29 AM EDT 8:04 PM EDT
Astronomical Twilight 5:57 AM EDT 8:36 PM EDT
Moon 9:36 PM EDT (10/4) 11:48 AM EDT (10/4)
Length of Visible Light 12h 30m
Length of Day
11h 35m
Waning Gibbous, 82% of the Moon is Illuminated
Oct 4
Waning Gibbous
Oct 8
Last Quarter
Oct 15
New
Oct 21
First Quarter
Oct 29
Full

Hourly Weather History & Observations

Time (EDT) Temp. Dew Point Humidity Pressure Visibility Wind Dir Wind Speed Gust Speed Precip Events Conditions
12:53 AM 59.0 °F 53.1 °F 81% 30.13 in 10.0 mi SSW 5.8 mph - N/A   Clear
1:53 AM 57.9 °F 52.0 °F 81% 30.14 in 10.0 mi SSW 5.8 mph - N/A   Clear
2:53 AM 59.0 °F 52.0 °F 78% 30.14 in 10.0 mi SSW 6.9 mph - N/A   Clear
3:53 AM 55.9 °F 52.0 °F 87% 30.14 in 10.0 mi SW 5.8 mph - N/A   Clear
4:53 AM 57.0 °F 51.1 °F 81% 30.14 in 10.0 mi SSW 5.8 mph - N/A   Clear
5:53 AM 55.0 °F 51.1 °F 86% 30.14 in 10.0 mi SSW 5.8 mph - N/A   Clear
6:53 AM 54.0 °F 50.0 °F 86% 30.15 in 10.0 mi SSW 5.8 mph - N/A   Clear
7:53 AM 54.0 °F 50.0 °F 86% 30.16 in 10.0 mi SSW 6.9 mph - N/A   Clear
8:53 AM 57.9 °F 51.1 °F 78% 30.16 in 10.0 mi SSW 8.1 mph - N/A   Clear
9:53 AM 64.0 °F 52.0 °F 65% 30.15 in 10.0 mi SW 9.2 mph - N/A   Clear
10:53 AM 68.0 °F 52.0 °F 56% 30.15 in 10.0 mi WSW 12.7 mph - N/A   Clear
11:53 AM 71.1 °F 51.1 °F 49% 30.14 in 10.0 mi WSW 12.7 mph - 0.00 in   Clear
12:53 PM 72.0 °F 52.0 °F 49% 30.14 in 10.0 mi WSW 15.0 mph 27.6 mph 0.00 in Rain Light Rain
1:53 PM 72.0 °F 52.0 °F 49% 30.12 in 10.0 mi West 10.4 mph 19.6 mph 0.00 in   Partly Cloudy
2:53 PM 73.9 °F 51.1 °F 45% 30.10 in 10.0 mi West 15.0 mph 26.5 mph N/A   Overcast
3:53 PM 73.0 °F 51.1 °F 46% 30.10 in 10.0 mi West 12.7 mph - N/A   Partly Cloudy
4:53 PM 73.9 °F 50.0 °F 43% 30.10 in 10.0 mi West 13.8 mph 18.4 mph N/A   Scattered Clouds
5:53 PM 73.0 °F 50.0 °F 44% 30.10 in 10.0 mi WSW 6.9 mph - N/A   Clear
6:53 PM 66.9 °F 51.1 °F 57% 30.10 in 10.0 mi SSW 4.6 mph - N/A   Clear
7:53 PM 62.1 °F 51.1 °F 67% 30.10 in 10.0 mi South 4.6 mph - N/A   Clear
8:53 PM 64.0 °F 51.1 °F 63% 30.09 in 10.0 mi SSW 6.9 mph - N/A   Clear
9:53 PM 63.0 °F 51.1 °F 65% 30.09 in 10.0 mi SSW 6.9 mph - N/A   Clear
10:53 PM 63.0 °F 52.0 °F 67% 30.07 in 10.0 mi SSW 6.9 mph - N/A   Clear
11:53 PM 61.0 °F 52.0 °F 72% 30.08 in 10.0 mi SW 8.1 mph - N/A   Clear